Lid_Strength_Index
1 2 3 3 2 3 4 3 0 0 1 1 1 1 1 1 2 4 7 6 8 11 10 9 9 12 12 13 15 14 14 14 14 17 17 16 17 15 16 15 15 15 17 17 16 18 17 9 10 13 11 11 10 10
0 1 1 2 2 3 3 3 1 -0 1 1 1 2 2 2 2 3 8 5 5 8 10 6 8 8 9 10 11 12 14 14 13 14 15 15 16 16 15 18 14 16 14 15 14 13 10 10 10 9 8 9 10 10
0 0 0 0 3 3 3 3 3 1 1 1 1 1 2 2 2 4 7 5 7 10 11 9 9 8 7 8 8 13 14 12 13 12 14 15 17 15 18 17 16 14 12 13 13 12 11 10 9 9 8 9 8 8
0 0 0 -0 1 2 3 3 3 3 1 1 1 1 2 2 3 4 7 6 8 10 13 12 8 9 8 8 8 8 10 9 10 11 14 15 16 14 17 16 16 14 14 13 13 11 11 10 10 9 8 7 8 8
0 -0 -1 -0 -0 1 2 3 3 3 3 1 1 1 2 3 3 5 6 6 6 10 14 13 10 9 9 9 9 8 9 10 12 14 15 16 14 14 15 15 15 14 14 15 14 11 12 11 9 8 9 9 8 8
-1 -1 -0 -0 -0 2 2 2 2 2 2 3 1 1 2 3 3 6 10 7 5 6 11 14 11 11 10 10 10 10 9 10 12 13 14 13 12 14 18 18 13 12 11 11 12 12 11 11 10 8 9 9 8 8
-1 -0 -0 -0 -0 1 1 2 2 2 2 4 1 2 3 3 5 9 11 8 4 6 11 14 15 12 11 11 11 11 10 11 12 14 14 14 13 13 18 16 13 12 11 11 11 11 12 11 11 9 8 8 7 8
-1 -0 -0 -0 -0 -0 0 2 2 2 3 3 1 2 3 3 5 8 7 5 4 8 9 15 16 14 11 13 14 11 12 12 12 14 14 15 14 14 17 13 11 10 10 10 10 10 10 10 10 9 8 9 9 9
-0 -0 -0 -0 -0 -0 -0 1 2 2 2 2 2 3 4 6 8 9 4 5 6 9 13 15 17 18 12 13 12 12 13 16 13 15 15 15 16 18 14 13 12 11 12 11 11 10 11 11 10 10 9 9 10 10
-0 -0 -0 -0 -0 -0 -0 0 2 2 2 2 3 6 9 7 4 5 7 9 10 10 11 15 13 15 12 13 13 13 13 17 19 15 14 16 16 12 12 11 11 11 11 11 11 11 11 11 10 10 10 9 9 9
-0 -0 -0 -0 -0 -0 -0 -0 1 2 3 4 7 9 6 5 8 10 12 13 13 14 12 13 13 14 11 14 14 12 15 14 18 16 16 18 18 13 11 11 10 10 9 9 9 9 10 9 9 9 9 9 9 9
-0 -0 -0 -0 -0 -0 -0 -0 1 3 4 6 7 5 7 9 12 14 15 13 14 15 12 14 13 12 11 9 12 13 15 17 19 14 16 19 15 12 12 11 11 10 9 9 9 9 9 9 9 9 9 9 9 8
-0 -0 -0 -0 -0 -0 -0 -0 2 2 3 5 7 10 11 13 16 16 18 16 15 13 13 13 13 12 11 10 13 15 17 18 14 19 18 16 13 12 12 10 10 9 9 9 9 9 8 9 8 8 8 8 9 9
0 0 0 0 -0 0 -0 0 2 3 5 11 14 16 14 16 15 15 14 14 13 13 12 11 12 12 11 14 14 17 15 16 20 20 18 15 13 12 11 10 10 10 10 10 10 9 9 8 8 8 7 8 8 9
0 0 0 0 0 0 0 0 0 2 9 12 13 14 14 14 14 13 12 12 12 11 11 12 13 12 16 15 16 16 18 21 18 17 17 14 12 12 11 11 11 11 11 11 10 10 10 9 9 9 8 8 8 9
0 0 1 0 0 0 0 1 1 4 9 12 11 13 13 13 13 12 12 13 11 11 10 12 14 16 16 16 18 18 19 18 16 15 13 12 12 12 11 11 12 12 11 11 11 10 9 9 9 9 9 8 8 8
0 3 0 0 0 0 1 4 6 10 12 12 12 10 12 12 12 12 11 12 10 11 14 14 17 17 16 20 19 17 17 14 14 13 13 12 12 11 11 12 11 11 11 11 10 9 9 8 8 9 10 9 8 9
3 1 0 0 0 1 7 9 11 11 13 12 12 11 10 10 11 11 11 10 11 11 12 14 14 17 19 19 17 15 14 13 13 12 11 11 11 11 11 12 11 12 11 11 10 9 8 8 9 9 10 9 10 11
1 1 0 0 3 7 10 11 10 11 11 11 10 10 10 10 10 9 10 10 9 9 10 14 17 18 16 14 14 14 13 13 13 12 11 11 11 11 11 11 11 12 12 11 10 10 10 9 9 10 10 11 12 12
0 0 0 1 3 8 10 11 10 10 10 11 9 10 10 10 10 10 10 10 10 11 13 15 15 13 13 12 11 11 11 11 11 12 12 12 11 11 11 11 12 12 11 10 9 9 10 11 11 11 11 12 12 12
1 1 1 4 7 8 9 11 10 10 10 10 8 9 10 9 10 11 11 9 11 13 16 13 12 11 10 11 10 11 11 10 10 11 11 12 11 11 11 11 11 11 11 11 11 11 11 11 11 11 11 12 12 12
3 2 6 5 9 9 10 9 10 9 10 10 10 10 12 12 12 11 10 12 14 12 12 11 11 11 11 10 10 10 10 10 10 9 9 10 12 12 12 11 11 12 12 12 11 12 11 11 11 11 12 12 11 12
3 5 8 8 9 10 11 8 10 10 11 12 11 13 13 13 11 10 14 13 13 11 10 10 10 10 10 10 10 11 10 9 10 10 10 11 11 11 11 11 10 11 12 12 11 11 11 10 10 11 11 12 12 12
4 7 9 9 9 12 10 12 10 10 10 11 12 14 13 13 11 14 15 15 12 11 11 10 9 11 11 11 11 11 10 9 10 11 10 10 11 11 10 10 10 10 10 11 11 11 11 11 10 11 12 12 12 13
10 10 10 11 11 12 16 12 11 12 13 11 14 14 13 12 14 15 16 15 12 11 10 9 9 10 10 10 10 10 10 9 10 11 11 10 11 11 11 10 10 10 9 11 11 11 11 11 12 12 12 12 13 13
13 11 11 16 11 12 12 14 12 13 13 13 13 14 14 15 15 16 16 13 11 11 10 10 10 10 10 10 11 11 11 10 10 10 11 10 10 10 11 11 11 11 9 9 10 11 11 11 12 12 13 12 11 13
14 13 10 10 10 10 11 10 10 12 14 15 15 16 15 17 17 15 13 10 10 9 9 8 8 9 9 9 9 9 10 10 10 10 10 9 9 9 9 11 11 10 9 9 9 9 10 11 12 12 12 12 12 12
14 10 11 11 10 10 11 11 11 11 13 13 13 16 17 17 16 13 12 10 9 8 9 8 8 8 8 9 9 9 10 11 11 11 12 12 11 10 10 10 10 8 8 8 8 9 9 9 10 11 12 12 12 12
12 10 10 14 12 11 11 10 11 11 11 12 13 14 14 13 13 12 12 9 8 9 9 9 9 10 10 10 9 9 10 10 12 14 13 13 13 12 11 10 9 9 9 9 7 8 9 9 9 10 10 11 11 12
12 10 11 11 13 12 11 11 11 10 11 11 12 13 14 14 15 14 12 10 10 10 9 9 9 9 10 10 11 11 10 9 9 10 11 12 11 11 11 10 10 10 10 9 9 9 7 8 8 10 11 11 12 12
10 10 12 12 15 13 11 11 10 11 11 12 12 13 13 13 13 12 10 10 10 10 10 10 10 9 10 10 11 11 11 10 9 9 10 11 11 10 10 10 10 10 10 10 10 9 9 10 11 11 12 12 12 11
10 11 12 14 14 12 11 11 12 12 12 12 14 13 13 13 14 14 12 11 10 11 10 10 10 10 9 9 9 9 9 10 11 10 11 11 10 11 10 10 10 10 10 10 10 10 10 11 11 12 12 12 12 12
13 11 11 12 14 12 11 11 12 14 14 15 14 13 13 13 14 13 13 11 10 10 10 9 9 9 9 9 10 10 9 10 9 9 9 9 9 10 10 10 10 10 11 11 11 11 11 12 12 12 12 12 12 12